Location: *
(45.1333°S, 169.6333°W)
Time: 18:27:58
(UTC+00:00)

Cosmos 2322 Rocket - Pass Details

Date: 26 May 2022
Orbit: 833 x 851 km, 71.0° (Epoch: 06 July)

Event Time Altitude Azimuth Distance (km) Brightness Sun altitude
Rises 06:28:04 0° 202° (SSW) 3,452 5.6 -27.4°
Reaches altitude 10° 06:30:39 10° 196° (SSW) 2,508 4.8 -27.9°
Enters shadow 06:33:22 26° 180° (S) 1,620 3.6 -28.3°
